• In Belgien
  • Länderverzeichnis
  • Für 7 Tage
  • Wassertemperatur
  • Satellitenkarten
  • Wetterkarte
  • Widgets
  • user-avatar
    Anmelden

    Stündliche Wetter Kos

    Heute, 25 September, Dienstag

    Zeit Temperatur Niederschläge Wind Luftdruck Luftfeuchtigkeit
    00:00 +21°C° 0 mm 2 m/S 762 mmHg 89%
    01:00 +21°C° 0 mm 2 m/S 761 mmHg 89%
    02:00 +20°C° 0 mm 2 m/S 761 mmHg 90%
    03:00 +20°C° 0 mm 2 m/S 761 mmHg 88%
    04:00 +20°C° 0 mm 2 m/S 761 mmHg 86%
    05:00 +20°C° 0 mm 2 m/S 761 mmHg 85%
    06:00 +21°C° 0 mm 2 m/S 761 mmHg 75%
    07:00 +24°C° 0 mm 2 m/S 761 mmHg 65%
    08:00 +26°C° 0 mm 4 m/S 761 mmHg 53%
    09:00 +28°C° 0 mm 4 m/S 761 mmHg 44%
    10:00 +32°C° 0 mm 4 m/S 761 mmHg 36%
    11:00 +34°C° 0 mm 5 m/S 761 mmHg 27%
    12:00 +35°C° 0 mm 5 m/S 761 mmHg 26%
    13:00 +36°C° 0 mm 6 m/S 761 mmHg 24%
    14:00 +38°C° 0 mm 7 m/S 761 mmHg 22%
    15:00 +37°C° 0 mm 8 m/S 761 mmHg 27%
    16:00 +34°C° 0 mm 9 m/S 761 mmHg 31%
    17:00 +33°C° 0 mm 10 m/S 761 mmHg 35%
    18:00 +29°C° 0 mm 10 m/S 761 mmHg 43%
    19:00 +26°C° 0 mm 11 m/S 761 mmHg 52%
    20:00 +22°C° 0 mm 11 m/S 761 mmHg 60%
    21:00 +21°C° 0 mm 11 m/S 762 mmHg 64%
    22:00 +19°C° 0 mm 11 m/S 762 mmHg 68%
    23:00 +18°C° 0 mm 12 m/S 762 mmHg 72%

    Morgen, 26 September, Mittwoch

    Zeit Temperatur Niederschläge Wind Luftdruck Luftfeuchtigkeit
    00:00 +17°C° 0 mm 12 m/S 762 mmHg 73%
    01:00 +17°C° 0 mm 11 m/S 762 mmHg 74%
    02:00 +17°C° 0 mm 11 m/S 762 mmHg 76%
    03:00 +16°C° 0 mm 11 m/S 762 mmHg 76%
    04:00 +16°C° 0 mm 11 m/S 762 mmHg 76%
    05:00 +16°C° 0 mm 11 m/S 762 mmHg 76%
    06:00 +17°C° 0 mm 11 m/S 762 mmHg 70%
    07:00 +18°C° 0 mm 11 m/S 762 mmHg 64%
    08:00 +19°C° 0 mm 11 m/S 762 mmHg 58%
    09:00 +22°C° 0 mm 11 m/S 762 mmHg 50%
    10:00 +24°C° 0 mm 10 m/S 762 mmHg 42%
    11:00 +27°C° 0 mm 10 m/S 762 mmHg 34%
    12:00 +28°C° 0 mm 10 m/S 762 mmHg 32%
    13:00 +29°C° 0 mm 10 m/S 762 mmHg 30%
    14:00 +31°C° 0 mm 10 m/S 761 mmHg 28%
    15:00 +31°C° 0 mm 10 m/S 761 mmHg 28%
    16:00 +29°C° 0 mm 10 m/S 761 mmHg 29%
    17:00 +28°C° 0 mm 11 m/S 760 mmHg 30%
    18:00 +26°C° 0 mm 11 m/S 761 mmHg 34%
    19:00 +23°C° 0 mm 11 m/S 761 mmHg 38%
    20:00 +21°C° 0 mm 11 m/S 761 mmHg 43%
    21:00 +19°C° 0 mm 10 m/S 761 mmHg 44%
    22:00 +18°C° 0 mm 10 m/S 761 mmHg 46%
    23:00 +18°C° 0 mm 9 m/S 762 mmHg 48%

    übermorgen, 27 September, Donnerstag

    Zeit Temperatur Niederschläge Wind Luftdruck Luftfeuchtigkeit
    00:00 +17°C° 0 mm 9 m/S 761 mmHg 49%
    01:00 +17°C° 0 mm 8 m/S 761 mmHg 49%
    02:00 +16°C° 0 mm 8 m/S 761 mmHg 50%
    03:00 +16°C° 0 mm 7 m/S 761 mmHg 51%
    04:00 +16°C° 0 mm 7 m/S 761 mmHg 51%
    05:00 +16°C° 0 mm 6 m/S 761 mmHg 52%
    06:00 +17°C° 0 mm 6 m/S 761 mmHg 49%
    07:00 +19°C° 0 mm 6 m/S 761 mmHg 47%
    08:00 +20°C° 0 mm 5 m/S 762 mmHg 44%
    09:00 +23°C° 0 mm 5 m/S 762 mmHg 39%
    10:00 +26°C° 0 mm 5 m/S 762 mmHg 34%
    11:00 +29°C° 0 mm 4 m/S 762 mmHg 30%
    12:00 +30°C° 0 mm 4 m/S 762 mmHg 28%
    13:00 +32°C° 0 mm 4 m/S 762 mmHg 26%
    14:00 +33°C° 0 mm 3 m/S 762 mmHg 25%
    15:00 +33°C° 0 mm 3 m/S 762 mmHg 25%
    16:00 +31°C° 0 mm 3 m/S 762 mmHg 26%
    17:00 +31°C° 0 mm 3 m/S 762 mmHg 27%
    18:00 +29°C° 0 mm 3 m/S 762 mmHg 31%
    19:00 +27°C° 0 mm 3 m/S 762 mmHg 34%
    20:00 +25°C° 0 mm 3 m/S 763 mmHg 38%
    21:00 +24°C° 0 mm 3 m/S 763 mmHg 42%
    22:00 +22°C° 0 mm 3 m/S 763 mmHg 45%
    23:00 +21°C° 0 mm 3 m/S 763 mmHg 49%

    28 September, Freitag

    Zeit Temperatur Niederschläge Wind Luftdruck Luftfeuchtigkeit
    00:00 +20°C° 0 mm 3 m/S 763 mmHg 51%
    01:00 +20°C° 0 mm 3 m/S 763 mmHg 52%
    02:00 +20°C° 0 mm 3 m/S 763 mmHg 54%
    03:00 +20°C° 0 mm 3 m/S 763 mmHg 54%
    04:00 +20°C° 0 mm 3 m/S 762 mmHg 53%
    05:00 +20°C° 0 mm 3 m/S 762 mmHg 53%
    06:00 +21°C° 0 mm 3 m/S 762 mmHg 49%
    07:00 +22°C° 0 mm 3 m/S 763 mmHg 45%
    08:00 +25°C° 0 mm 2 m/S 763 mmHg 41%
    09:00 +27°C° 0 mm 2 m/S 763 mmHg 36%
    10:00 +30°C° 0 mm 2 m/S 763 mmHg 30%
    11:00 +34°C° 0 mm 2 m/S 763 mmHg 25%
    12:00 +34°C° 0.1 mm 2 m/S 763 mmHg 25%
    13:00 +34°C° 0.1 mm 2 m/S 763 mmHg 26%
    14:00 +34°C° 0.1 mm 2 m/S 762 mmHg 27%
    15:00 +31°C° 0.2 mm 2 m/S 762 mmHg 31%
    16:00 +30°C° 0.2 mm 2 m/S 762 mmHg 35%
    17:00 +29°C° 0.2 mm 2 m/S 762 mmHg 39%
    18:00 +27°C° 0.1 mm 2 m/S 762 mmHg 45%
    19:00 +26°C° 0.1 mm 2 m/S 762 mmHg 50%
    20:00 +24°C° 0.1 mm 2 m/S 762 mmHg 55%
    21:00 +24°C° 0 mm 3 m/S 762 mmHg 57%
    22:00 +24°C° 0 mm 3 m/S 762 mmHg 59%
    23:00 +22°C° 0 mm 3 m/S 762 mmHg 61%

    29 September, Samstag

    Zeit Temperatur Niederschläge Wind Luftdruck Luftfeuchtigkeit
    00:00 +22°C° 0 mm 3 m/S 762 mmHg 62%
    01:00 +22°C° 0 mm 3 m/S 762 mmHg 63%
    02:00 +22°C° 0 mm 3 m/S 762 mmHg 64%
    03:00 +22°C° 0.1 mm 3 m/S 762 mmHg 66%
    04:00 +21°C° 0.1 mm 4 m/S 761 mmHg 68%
    05:00 +21°C° 0.1 mm 4 m/S 761 mmHg 69%
    06:00 +23°C° 0.1 mm 4 m/S 761 mmHg 64%
    07:00 +25°C° 0.1 mm 4 m/S 761 mmHg 59%
    08:00 +26°C° 0.1 mm 5 m/S 761 mmHg 55%
    09:00 +28°C° 0.1 mm 5 m/S 761 mmHg 48%
    10:00 +30°C° 0.1 mm 5 m/S 761 mmHg 41%
    11:00 +33°C° 0.1 mm 5 m/S 761 mmHg 35%
    12:00 +33°C° 0 mm 5 m/S 761 mmHg 35%
    13:00 +33°C° 0 mm 5 m/S 761 mmHg 36%
    14:00 +33°C° 0 mm 5 m/S 760 mmHg 37%
    15:00 +32°C° 0 mm 5 m/S 760 mmHg 40%
    16:00 +30°C° 0 mm 5 m/S 760 mmHg 42%
    17:00 +29°C° 0 mm 4 m/S 760 mmHg 45%
    18:00 +27°C° 0 mm 4 m/S 761 mmHg 54%
    19:00 +25°C° 0 mm 4 m/S 761 mmHg 62%
    20:00 +22°C° 0 mm 4 m/S 761 mmHg 71%
    21:00 +22°C° 0 mm 4 m/S 761 mmHg 70%
    22:00 +22°C° 0 mm 4 m/S 761 mmHg 70%
    23:00 +22°C° 0 mm 4 m/S 761 mmHg 69%

    30 September, Sonntag

    Zeit Temperatur Niederschläge Wind Luftdruck Luftfeuchtigkeit
    00:00 +22°C° 0 mm 4 m/S 761 mmHg 68%
    01:00 +22°C° 0 mm 5 m/S 761 mmHg 68%
    02:00 +22°C° 0 mm 5 m/S 761 mmHg 67%
    03:00 +21°C° 0 mm 5 m/S 761 mmHg 69%
    04:00 +21°C° 0 mm 5 m/S 760 mmHg 70%
    05:00 +21°C° 0 mm 5 m/S 760 mmHg 71%
    06:00 +22°C° 0.2 mm 6 m/S 760 mmHg 67%
    07:00 +23°C° 0.2 mm 6 m/S 761 mmHg 62%
    08:00 +26°C° 0.2 mm 7 m/S 761 mmHg 57%
    09:00 +28°C° 0.6 mm 7 m/S 761 mmHg 51%
    10:00 +29°C° 0.6 mm 7 m/S 761 mmHg 45%
    11:00 +32°C° 0.6 mm 8 m/S 761 mmHg 39%
    12:00 +32°C° 0.8 mm 7 m/S 760 mmHg 41%
    13:00 +30°C° 0.8 mm 7 m/S 760 mmHg 44%
    14:00 +30°C° 0.8 mm 7 m/S 760 mmHg 47%
    15:00 +29°C° 0.5 mm 7 m/S 760 mmHg 47%
    16:00 +29°C° 0.5 mm 7 m/S 760 mmHg 48%
    17:00 +29°C° 0.5 mm 7 m/S 759 mmHg 48%
    18:00 +27°C° 0.5 mm 7 m/S 760 mmHg 56%
    19:00 +26°C° 0.5 mm 7 m/S 760 mmHg 64%
    20:00 +23°C° 0.5 mm 7 m/S 760 mmHg 72%
    21:00 +23°C° 0.4 mm 8 m/S 760 mmHg 74%
    22:00 +22°C° 0.4 mm 8 m/S 759 mmHg 76%
    23:00 +22°C° 0.4 mm 8 m/S 759 mmHg 79%
    Mehr zeigen